Content
SEND FEEDBACK

Daily
Averages
Monthly
Summary
United States of America

MILFORD, KANSAS


Home > North America > United States > Kansas
Elevation: 1210 feet     Latitude: 39 05N     Longitude: 096 53W

WEATHER
 
SELECT A DAY
Number of Records: 120,914;   Date Range: 1/1/95 - 12/25/14
 
SHARE

PRINT THIS DATA

[ ← Previous Day ]
WEATHER ALMANAC - JANUARY 31, 2013
[ Next Day → ]
[ °C ]   °F
Weather ElementAverageHighLow
Temperature16.9 °F19.6 °F (7:55 am)4.1 °F (11:55 pm)
Dewpoint8.8 °F17.6 °F (5:55 am)1.9 °F (9:55 pm)
Humidity71.5 %99 % (2:55 am)49 % (2:09 pm)
Barometer30.30 in30.54 in (9:55 pm)29.99 in (1:55 am)
Wind Speed10.7 mph21.9 mph (2:00 pm)
Wind Gust32.2 mph (12:55 pm)
Weather ElementAverage
Visibility9.8 mi
Wind DirectionWSW (234.6 °)

Weather ElementTotal
Precipitation---
Heating Degree Days53.2 (Base 65)
Averaged from 48 records on January 31, 2013
WEATHER CONDITIONS BREAKOUT
WIND DIRECTION BREAKOUT
WEATHER BY HOUR - JANUARY 31, 2013
[ °C ]   °F
Local TimeTemperatureDewpointHumidityBarometerVisibilityWind DirectionWind SpeedGust SpeedPrecipitationEventsConditions
1:55 AM12.9 °F12.6 °F98 %29.99 in10.0 miCalmOvercast
2:55 AM13.6 °F13.5 °F99 %29.99 in10.0 miCalmOvercast
3:55 AM15.4 °F15.1 °F98 %30.02 in10.0 miCalmOvercast
4:55 AM16.0 °F15.8 °F99 %30.02 in10.0 miSSW (210°)3.5 mphOvercast
5:55 AM17.8 °F17.6 °F99 %30.07 in10.0 miNNE (30°)6.9 mphOvercast
6:55 AM19.0 °F16.0 °F88 %30.10 in10.0 miNNE (20°)8.1 mphOvercast
7:55 AM19.6 °F15.6 °F85 %30.14 in10.0 miNorth (10°)8.1 mphScattered Clouds
8:38 AM19.4 °F14.0 °F80 %30.19 in10.0 miNorth (350°)10.4 mphSnowLight Snow
8:42 AM19.4 °F14.0 °F80 %30.19 in10.0 miNorth (360°)9.2 mphSnowLight Snow
8:55 AM19.0 °F14.0 °F81 %30.20 in8.0 miNorth (10°)9.2 mph0.00 inSnowLight Snow
9:19 AM17.6 °F10.4 °F73 %30.22 in10.0 miNorth (360°)10.4 mphSnowLight Snow
9:26 AM17.6 °F10.4 °F73 %30.22 in10.0 miNorth (360°)13.8 mphSnowLight Snow
9:30 AM17.6 °F10.4 °F73 %30.23 in10.0 miNorth (10°)9.2 mphMostly Cloudy
9:48 AM17.6 °F8.6 °F68 %30.25 in9.0 miNorth (360°)12.7 mphSnowLight Snow
9:55 AM17.6 °F10.0 °F72 %30.26 in7.0 miNorth (10°)12.7 mph0.00 inSnowLight Snow
10:05 AM17.6 °F10.4 °F73 %30.27 in10.0 miNorth (10°)10.4 mphOvercast
10:10 AM17.6 °F10.4 °F73 %30.27 in10.0 miNorth (360°)8.1 mphOvercast
10:13 AM17.6 °F10.4 °F73 %30.27 in10.0 miNNW (340°)12.7 mphSnowLight Snow
10:18 AM17.6 °F10.4 °F73 %30.28 in9.0 miNorth (350°)12.7 mph17.3 mphSnowLight Snow
10:27 AM17.6 °F8.6 °F68 %30.29 in10.0 miNorth (350°)12.7 mph19.6 mphOvercast
10:49 AM17.6 °F8.6 °F68 %30.31 in10.0 miNorth (350°)13.8 mphSnowLight Snow
10:55 AM18.3 °F8.6 °F66 %30.32 in10.0 miNorth (350°)13.8 mph0.00 inSnowLight Snow
10:58 AM17.6 °F8.6 °F68 %30.32 in10.0 miNNW (340°)13.8 mphMostly Cloudy
11:43 AM19.4 °F8.6 °F63 %30.35 in10.0 miNorth (350°)16.1 mphOvercast
11:55 AM19.6 °F9.5 °F65 %30.36 in10.0 miNNW (340°)15.0 mph20.7 mph0.00 inOvercast
12:01 PM19.4 °F10.4 °F68 %30.35 in10.0 miNNW (340°)11.5 mph23.0 mphOvercast
12:05 PM19.4 °F10.4 °F68 %30.36 in10.0 miNorth (350°)13.8 mph23.0 mphOvercast
12:07 PM19.4 °F10.4 °F68 %30.36 in10.0 miNorth (350°)13.8 mph21.9 mphOvercast
12:09 PM19.4 °F10.4 °F68 %30.36 in10.0 miNorth (350°)12.7 mph21.9 mphOvercast
12:10 PM19.4 °F10.4 °F68 %30.36 in10.0 miNorth (350°)11.5 mph21.9 mphOvercast
12:13 PM19.4 °F10.4 °F68 %30.36 in10.0 miNorth (350°)15.0 mph19.6 mphOvercast
12:20 PM19.4 °F8.6 °F63 %30.35 in10.0 miNNW (330°)18.4 mph26.5 mphOvercast
12:55 PM19.0 °F5.9 °F57 %30.37 in9.0 miNW (320°)20.7 mph32.2 mphOvercast
12:57 PM19.4 °F5.0 °F54 %30.37 in9.0 miNW (320°)18.4 mph32.2 mphSnowLight Snow
1:07 PM19.4 °F5.0 °F54 %30.37 in10.0 miNNW (330°)16.1 mph25.3 mphOvercast
1:55 PM19.0 °F4.1 °F52 %30.38 in10.0 miNNW (330°)18.4 mph29.9 mph0.00 inClear
2:00 PM19.4 °F5.0 °F54 %30.38 in9.0 miNNW (340°)21.9 mph32.2 mphClear
2:09 PM19.4 °F3.2 °F49 %30.38 in10.0 miNNW (330°)12.7 mph27.6 mphClear
2:55 PM18.3 °F4.8 °F56 %30.39 in10.0 miNorth (350°)18.4 mph25.3 mph0.00 inScattered Clouds
3:55 PM18.0 °F5.0 °F57 %30.40 in10.0 miNorth (350°)16.1 mph21.9 mphOvercast
4:55 PM17.6 °F3.2 °F53 %30.41 in10.0 miNNW (330°)16.1 mphOvercast
5:55 PM15.6 °F3.2 °F58 %30.44 in10.0 miNNW (340°)8.1 mphClear
6:55 PM13.3 °F2.3 °F62 %30.45 in10.0 miCalmClear
7:55 PM10.2 °F2.3 °F70 %30.49 in10.0 miWSW (240°)3.5 mphClear
8:55 PM11.3 °F3.6 °F71 %30.52 in10.0 miCalmClear
9:55 PM7.0 °F1.9 °F80 %30.54 in10.0 miCalmClear
10:55 PM5.7 °F2.5 °F86 %30.53 in10.0 miNNE (30°)3.5 mphPartly Cloudy
11:55 PM4.1 °F2.5 °F93 %30.52 in10.0 miCalmPartly Cloudy
Hourly data recorded from KFRI, located miles away from Milford, Kansas







STORIES FROM OUR PARTNERS